Location: Unspecified
(0.0000°N, 0.0000°E)
Time: 01:01:52
(UTC+00:00)

Vanguard 2 - Pass Details

Date: 17 December 2018
Orbit: 552 x 2939 km, 32.9° (Epoch: 18 January)

Event Time Altitude Azimuth Distance (km) Brightness Sun altitude
Rises 00:11:17 0° 333° (NNW) 4,312 - -66.4°
Reaches altitude 10° 00:14:41 10° 348° (NNW) 3,696 - -66.2°
Maximum altitude 00:22:22 24° 38° (NE) 3,458 - -65.8°
Exits shadow 00:32:19 11° 82° (E) 5,102 11.7 -65.0°
Drops below altitude 10° 00:32:52 10° 84° (E) 5,219 11.8 -65.0°
Sets 00:38:54 0° 96° (E) 6,539 12.4 -64.4°
